Location: 10033 Water Well
(34.0865°N, 106.8959°W)
Time: 22:08:19
(UTC+00:00)

USA 238 DEB - Pass Details

Date: 13 January 2026
Orbit: 883 x 1328 km, 63.4° (Epoch: 10 January)

Event Time Altitude Azimuth Distance (km) Brightness Sun altitude
Rises 01:50:17 0° 333° (NNW) 4,032 6.9 -18.6°
Reaches altitude 10° 01:52:59 10° 338° (NNW) 3,128 6.2 -19.2°
Maximum altitude 02:00:29 57° 56° (NE) 1,475 4.1 -20.7°
Enters shadow 02:07:19 15° 131° (SE) 2,961 5.7 -22.1°
